This is the latest recevied weather packets stored in our database for station/object HB9HFD-13. If no packets are shown the sender has not sent any weather packets the latest 10 day(s).
| Time | Temp. | Humidity | Pressure | Rain* | Wind** | Luminosity | Snow |
|---|---|---|---|---|---|---|---|
| 1777807933 | 20.56° C | 43% | 1014.3 hPa | 0 mm | - | - | - |
| 1777807632 | 20.56° C | 41% | 1014.1 hPa | 0 mm | - | - | - |
| 1777807332 | 21.11° C | 42% | 1014.2 hPa | 0 mm | - | - | - |
| 1777807032 | 21.11° C | 42% | 1014.1 hPa | 0 mm | - | - | - |
| 1777806732 | 20.56° C | 41% | 1014.1 hPa | 0 mm | - | - | - |
| 1777806431 | 20.56° C | 42% | 1014 hPa | 0 mm | - | - | - |
| 1777806131 | 20.56° C | 41% | 1014 hPa | 0 mm | - | - | - |
| 1777805830 | 20.56° C | 41% | 1014.2 hPa | 0 mm | - | - | - |
| 1777805530 | 20° C | 43% | 1014.1 hPa | 0 mm | - | - | - |
| 1777805230 | 19.44° C | 41% | 1014.2 hPa | 0 mm | - | - | - |
| 1777804930 | 20° C | 40% | 1014.1 hPa | 0 mm | - | - | - |
| 1777804630 | 20.56° C | 45% | 1014 hPa | 0 mm | - | - | - |
| 1777804329 | 20.56° C | 47% | 1013.9 hPa | 0 mm | - | - | - |
| 1777804029 | 20.56° C | 45% | 1013.9 hPa | 0 mm | - | - | - |
| 1777803729 | 20.56° C | 46% | 1013.9 hPa | 0 mm | - | - | - |
| 1777803428 | 20.56° C | 45% | 1013.9 hPa | 0 mm | - | - | - |
| 1777803128 | 20° C | 45% | 1013.7 hPa | 0 mm | - | - | - |
| 1777802828 | 20° C | 46% | 1013.8 hPa | 0 mm | - | - | - |
| 1777802528 | 20° C | 46% | 1013.9 hPa | 0 mm | - | - | - |
| 1777802227 | 20° C | 47% | 1013.8 hPa | 0 mm | - | - | - |
| 1777801927 | 19.44° C | 47% | 1013.9 hPa | 0 mm | - | - | - |
| 1777801627 | 19.44° C | 47% | 1014.1 hPa | 0 mm | - | - | - |
| 1777801327 | 19.44° C | 46% | 1013.9 hPa | 0 mm | - | - | - |
| 1777801026 | 19.44° C | 46% | 1013.9 hPa | 0 mm | - | - | - |
| 1777800726 | 19.44° C | 45% | 1013.8 hPa | 0 mm | - | - | - |
* Rain latest hour (hover to see other rain measurements)
** Current wind speed in m/s (hover to see current wind gust speed)